Location: Isles
(48.9125°N, 2.8272°E)
Time: 15:22:11
(UTC+00:00)

CZ-4 R/B - Pass Details

Date: 03 February 2023
Orbit: 526 x 586 km, 97.7° (Epoch: 30 March)

Event Time Altitude Azimuth Distance (km) Brightness Sun altitude
Rises 19:35:21 0° 192° (SSW) 2,800 5.0 -27.5°
Reaches altitude 10° 19:37:44 10° 203° (SSW) 1,899 4.2 -27.9°
Maximum altitude 19:41:20 29° 264° (W) 1,078 3.3 -28.5°
Drops below altitude 10° 19:44:55 10° 326° (NW) 1,885 4.5 -29.0°
Sets 19:47:17 0° 338° (NNW) 2,777 5.3 -29.4°
